SAA222 FAOR-SBGR

Flight info

Callsign SAA222
Flight time N/A
Altitude 30000
Route RAGUL3A RAGUL UZ6 AVUSA UQ11 UDLON/N0500F320 UQ11 OKTEL DCT 29S010E 30S000E 30S010W/N0490F340 29S020W 27S030W/N0481F360 DCT ATORO DCT EDMUS
Aircraft A346/H-SDE2E3FGHIJ3J4J5M1RWXY/LB1D1

Departure

Time N/A
Airport O.R. Tambo International Airport (FAOR)

Arrival

Time 2026-05-06 13:05
Airport São Paulo/Guarulhos–Governor André Franco Montoro International Airport (SBGR)
Time Latitude Longitude Altitude Speed Heading
2026-05-06 11:58 -29.85350 2.10696 34413 ft 416 kts 265°
2026-05-06 11:58 -29.85607 2.07392 34415 ft 416 kts 265°
2026-05-06 11:59 -29.86120 2.00747 34411 ft 416 kts 265°
2026-05-06 11:59 -29.86632 1.94074 34412 ft 416 kts 265°
2026-05-06 12:00 -29.87139 1.87417 34411 ft 416 kts 265°
2026-05-06 12:00 -29.87642 1.80772 34410 ft 416 kts 265°
2026-05-06 12:01 -29.88144 1.74097 34412 ft 416 kts 265°
2026-05-06 12:01 -29.88640 1.67456 34411 ft 416 kts 265°
2026-05-06 12:02 -29.89134 1.60794 34409 ft 416 kts 265°
2026-05-06 12:02 -29.89625 1.54118 34406 ft 416 kts 265°
2026-05-06 12:03 -29.90108 1.47484 34412 ft 416 kts 265°
2026-05-06 12:03 -29.90588 1.40854 34417 ft 417 kts 265°
2026-05-06 12:04 -29.91070 1.34165 34408 ft 417 kts 265°
2026-05-06 12:04 -29.91546 1.27509 34413 ft 417 kts 265°
2026-05-06 12:05 -29.92021 1.20825 34408 ft 417 kts 266°
2026-05-06 12:05 -29.92491 1.14180 34415 ft 417 kts 266°
2026-05-06 12:06 -29.92960 1.07481 34419 ft 417 kts 266°
2026-05-06 12:06 -29.93422 1.00843 34415 ft 417 kts 266°
2026-05-06 12:07 -29.93884 0.94154 34417 ft 417 kts 266°
2026-05-06 12:07 -29.94340 0.87495 34412 ft 417 kts 266°
2026-05-06 12:08 -29.94796 0.80795 34387 ft 417 kts 266°
2026-05-06 12:08 -29.95246 0.74130 34416 ft 417 kts 266°
2026-05-06 12:09 -29.95695 0.67442 34421 ft 417 kts 266°
2026-05-06 12:09 -29.96139 0.60760 34420 ft 417 kts 266°
2026-05-06 12:10 -25.86010 -35.84177 35720 ft 435 kts 279°
2026-05-06 12:10 -25.85243 -35.87467 35944 ft 439 kts 283°
2026-05-06 12:10 -25.84427 -35.90759 36150 ft 444 kts 283°
2026-05-06 12:11 -25.82772 -35.97439 36254 ft 456 kts 283°
2026-05-06 12:11 -25.81082 -36.04314 36267 ft 458 kts 283°
2026-05-06 12:12 -25.75193 -36.28324 36268 ft 457 kts 283°
2026-05-06 12:12 -25.66866 -36.62028 36269 ft 457 kts 283°
2026-05-06 12:13 -25.58467 -36.95662 36267 ft 459 kts 283°
2026-05-06 12:13 -25.50021 -37.29128 36263 ft 460 kts 283°
2026-05-06 12:14 -25.41411 -37.62893 36263 ft 461 kts 283°
2026-05-06 12:14 -25.32742 -37.96545 36257 ft 462 kts 283°
2026-05-06 12:15 -25.25265 -38.25291 36269 ft 458 kts 283°
2026-05-06 12:16 -25.24898 -38.26697 36257 ft 464 kts 283°
2026-05-06 12:17 -25.23105 -38.33550 36254 ft 464 kts 283°
2026-05-06 12:17 -25.21311 -38.40391 36258 ft 465 kts 283°
2026-05-06 12:18 -25.19501 -38.47280 36248 ft 465 kts 283°
2026-05-06 12:18 -25.17703 -38.54111 36247 ft 465 kts 283°
2026-05-06 12:19 -25.15890 -38.60986 36250 ft 466 kts 283°
2026-05-06 12:19 -25.14068 -38.67878 36247 ft 466 kts 283°
2026-05-06 12:20 -25.12252 -38.74735 36256 ft 466 kts 283°
2026-05-06 12:20 -25.10424 -38.81626 36246 ft 466 kts 283°
2026-05-06 12:21 -25.08591 -38.88518 36237 ft 467 kts 283°
2026-05-06 12:21 -25.06762 -38.95383 36251 ft 467 kts 283°
2026-05-06 12:22 -25.04928 -39.02249 36240 ft 467 kts 283°
2026-05-06 12:22 -25.03081 -39.09154 36246 ft 468 kts 283°
2026-05-06 12:23 -25.01233 -39.16050 36243 ft 468 kts 283°
2026-05-06 12:23 -24.99382 -39.22940 36240 ft 468 kts 283°
2026-05-06 12:24 -24.97533 -39.29809 36244 ft 468 kts 283°
2026-05-06 12:24 -24.95667 -39.36726 36242 ft 469 kts 283°
2026-05-06 12:25 -24.93799 -39.43640 36240 ft 469 kts 283°
2026-05-06 12:25 -24.91939 -39.50506 36239 ft 469 kts 283°
2026-05-06 12:26 -24.87132 -39.68199 36239 ft 469 kts 283°
2026-05-06 12:26 -24.77864 -40.02048 36236 ft 470 kts 283°
2026-05-06 12:27 -24.68475 -40.36010 36228 ft 470 kts 283°
2026-05-06 12:27 -24.58989 -40.69998 36226 ft 471 kts 282°
2026-05-06 12:28 -24.49384 -41.04084 36223 ft 471 kts 282°
2026-05-06 12:28 -24.39643 -41.38328 36222 ft 472 kts 283°
2026-05-06 12:29 -24.29933 -41.72143 36218 ft 473 kts 283°
2026-05-06 12:29 -24.20184 -42.05783 36215 ft 474 kts 283°
2026-05-06 12:30 -24.10330 -42.39478 36211 ft 474 kts 283°
2026-05-06 12:30 -24.00301 -42.73463 36207 ft 473 kts 283°
2026-05-06 12:31 -23.90348 -43.06888 36198 ft 473 kts 283°
2026-05-06 12:31 -23.80329 -43.40241 36192 ft 474 kts 283°
2026-05-06 12:32 -23.70171 -43.73765 36192 ft 473 kts 283°
2026-05-06 12:32 -23.60088 -44.06758 36182 ft 473 kts 283°
2026-05-06 12:33 -23.54280 -44.25636 36182 ft 474 kts 283°
2026-05-06 12:33 -23.52176 -44.32450 36194 ft 474 kts 283°
2026-05-06 12:34 -23.50062 -44.39284 36178 ft 473 kts 283°
2026-05-06 12:34 -23.47954 -44.46093 36194 ft 473 kts 283°
2026-05-06 12:35 -23.45837 -44.52915 36182 ft 473 kts 283°
2026-05-06 12:35 -23.43731 -44.59691 36183 ft 473 kts 282°
2026-05-06 12:36 -23.41610 -44.66502 36185 ft 472 kts 282°
2026-05-06 12:36 -23.39504 -44.73250 36191 ft 472 kts 282°
2026-05-06 12:37 -23.38446 -44.76635 36055 ft 467 kts 282°
2026-05-06 12:37 -23.37751 -44.78857 35692 ft 467 kts 282°
2026-05-06 12:37 -23.36696 -44.82244 34855 ft 472 kts 283°
2026-05-06 12:37 -23.35280 -44.86796 33680 ft 479 kts 283°
2026-05-06 12:38 -23.34564 -44.89091 33128 ft 480 kts 284°
2026-05-06 12:38 -23.33476 -44.92565 32322 ft 482 kts 284°
2026-05-06 12:38 -23.32388 -44.96035 31489 ft 484 kts 284°
2026-05-06 12:38 -23.31292 -44.99527 30667 ft 487 kts 285°
2026-05-06 12:39 -23.30186 -45.03046 29760 ft 490 kts 285°
2026-05-06 12:39 -23.29076 -45.06574 28857 ft 491 kts 285°
2026-05-06 12:39 -23.27979 -45.10055 28199 ft 488 kts 286°
2026-05-06 12:39 -23.26880 -45.13531 27695 ft 481 kts 286°
2026-05-06 12:40 -23.25792 -45.16967 27213 ft 475 kts 286°
2026-05-06 12:40 -23.24727 -45.20331 26681 ft 470 kts 286°
2026-05-06 12:40 -23.23667 -45.23681 26100 ft 467 kts 287°
2026-05-06 12:40 -23.22606 -45.27030 25510 ft 464 kts 287°
2026-05-06 12:41 -23.21552 -45.30358 24955 ft 460 kts 287°
2026-05-06 12:41 -23.20509 -45.33651 24400 ft 457 kts 287°
2026-05-06 12:41 -23.19750 -45.36993 23834 ft 452 kts 277°
2026-05-06 12:41 -23.19605 -45.40369 23233 ft 447 kts 266°
2026-05-06 12:42 -23.20042 -45.43735 22630 ft 442 kts 257°
2026-05-06 12:42 -23.20748 -45.46980 22052 ft 438 kts 255°
2026-05-06 12:42 -23.21489 -45.50197 21456 ft 435 kts 255°
2026-05-06 12:42 -23.22214 -45.53367 20835 ft 434 kts 255°
2026-05-06 12:43 -23.22989 -45.56554 20312 ft 430 kts 253°
2026-05-06 12:43 -23.23842 -45.59669 19829 ft 426 kts 252°
2026-05-06 12:43 -23.24695 -45.62745 19395 ft 421 kts 252°
2026-05-06 12:43 -23.25543 -45.65800 18960 ft 417 kts 252°
2026-05-06 12:44 -23.26376 -45.68810 18518 ft 414 kts 252°
2026-05-06 12:44 -23.27204 -45.71805 18047 ft 410 kts 252°
2026-05-06 12:44 -23.28021 -45.74770 17597 ft 406 kts 252°
2026-05-06 12:44 -23.28818 -45.77665 17167 ft 402 kts 252°
2026-05-06 12:45 -23.29620 -45.80587 16740 ft 398 kts 252°
2026-05-06 12:45 -23.30413 -45.83479 16318 ft 395 kts 252°
2026-05-06 12:45 -23.31970 -45.89157 15474 ft 391 kts 252°
2026-05-06 12:46 -23.32760 -45.92012 15109 ft 397 kts 252°
2026-05-06 12:46 -23.33589 -45.94929 15109 ft 405 kts 252°
2026-05-06 12:46 -23.34422 -45.97852 15125 ft 406 kts 252°
2026-05-06 12:46 -23.35263 -46.00809 15138 ft 407 kts 252°
2026-05-06 12:47 -23.36100 -46.03764 15147 ft 407 kts 252°
2026-05-06 12:47 -23.36926 -46.06685 15167 ft 407 kts 252°
2026-05-06 12:47 -23.37763 -46.09650 15180 ft 407 kts 252°
2026-05-06 12:47 -23.38317 -46.11611 15191 ft 407 kts 252°
2026-05-06 12:48 -23.38724 -46.13057 15195 ft 407 kts 252°
2026-05-06 12:48 -23.39301 -46.15108 15204 ft 407 kts 252°
2026-05-06 12:49 -23.40169 -46.18193 15214 ft 407 kts 252°
2026-05-06 12:49 -23.41019 -46.21217 15197 ft 407 kts 252°
2026-05-06 12:49 -23.41857 -46.24199 14907 ft 407 kts 252°
2026-05-06 12:49 -23.42668 -46.27132 14358 ft 407 kts 254°
2026-05-06 12:50 -23.42924 -46.30191 13778 ft 406 kts 276°
2026-05-06 12:50 -23.42143 -46.33125 13315 ft 400 kts 297°
2026-05-06 12:50 -23.40683 -46.35670 12892 ft 394 kts 304°
2026-05-06 12:50 -23.39129 -46.38133 12445 ft 390 kts 305°
2026-05-06 12:51 -23.37611 -46.40561 12021 ft 386 kts 303°
2026-05-06 12:51 -23.36515 -46.43271 11547 ft 389 kts 282°
2026-05-06 12:51 -23.36166 -46.46244 11218 ft 387 kts 274°
2026-05-06 12:51 -23.36017 -46.48632 11027 ft 382 kts 274°
2026-05-06 12:52 -23.35829 -46.51459 10755 ft 374 kts 275°
2026-05-06 12:52 -23.35601 -46.54251 10500 ft 363 kts 276°
2026-05-06 12:52 -23.35345 -46.56952 10277 ft 352 kts 276°
2026-05-06 12:52 -23.35077 -46.59543 10042 ft 342 kts 277°
2026-05-06 12:53 -23.34800 -46.62110 9817 ft 334 kts 277°
2026-05-06 12:53 -23.34527 -46.64585 9674 ft 321 kts 277°
2026-05-06 12:53 -23.34264 -46.66941 9576 ft 309 kts 277°
2026-05-06 12:53 -23.34007 -46.69238 9464 ft 300 kts 277°
2026-05-06 12:54 -23.33752 -46.71501 9369 ft 300 kts 277°
2026-05-06 12:54 -23.33497 -46.73765 9249 ft 300 kts 277°
2026-05-06 12:54 -23.33247 -46.75983 9047 ft 295 kts 277°
2026-05-06 12:54 -23.32996 -46.78210 8743 ft 295 kts 277°
2026-05-06 12:55 -23.32746 -46.80425 8455 ft 291 kts 277°
2026-05-06 12:55 -23.32532 -46.82575 8135 ft 286 kts 271°
2026-05-06 12:55 -23.32860 -46.84706 7741 ft 284 kts 248°
2026-05-06 12:55 -23.33857 -46.86563 7314 ft 284 kts 227°
2026-05-06 12:56 -23.35349 -46.87915 7126 ft 272 kts 207°
2026-05-06 12:56 -23.37045 -46.88640 7108 ft 252 kts 189°
2026-05-06 12:56 -23.38710 -46.88779 7146 ft 234 kts 172°
2026-05-06 12:56 -23.40230 -46.88438 7179 ft 211 kts 158°
2026-05-06 12:57 -23.41500 -46.87754 7172 ft 202 kts 143°
2026-05-06 12:57 -23.42583 -46.86748 7224 ft 208 kts 130°
2026-05-06 12:57 -23.43486 -46.85501 7263 ft 210 kts 128°
2026-05-06 12:57 -23.44458 -46.84334 7330 ft 207 kts 131°
2026-05-06 12:58 -23.45440 -46.83224 7188 ft 199 kts 132°
2026-05-06 12:58 -23.46398 -46.82156 6924 ft 194 kts 132°
2026-05-06 12:58 -23.47338 -46.81104 6670 ft 193 kts 132°
2026-05-06 12:58 -23.48214 -46.80011 6315 ft 189 kts 120°
2026-05-06 12:59 -23.48771 -46.78728 5923 ft 188 kts 111°
2026-05-06 12:59 -23.49126 -46.77362 5611 ft 186 kts 97°
2026-05-06 12:59 -23.49215 -46.75952 5269 ft 186 kts 92°
2026-05-06 12:59 -23.49252 -46.74537 4951 ft 185 kts 91°
2026-05-06 13:00 -23.49282 -46.73149 4609 ft 186 kts 91°
2026-05-06 13:00 -23.49322 -46.71742 4499 ft 185 kts 92°
2026-05-06 13:00 -23.49341 -46.70341 4509 ft 186 kts 87°
2026-05-06 13:00 -23.49181 -46.68922 4500 ft 186 kts 79°
2026-05-06 13:01 -23.48904 -46.67553 4500 ft 186 kts 76°
2026-05-06 13:01 -23.48573 -46.66174 4491 ft 187 kts 75°
2026-05-06 13:01 -23.48219 -46.64809 4496 ft 187 kts 74°
2026-05-06 13:01 -23.47860 -46.63466 4485 ft 187 kts 73°
2026-05-06 13:02 -23.47490 -46.62101 4494 ft 184 kts 74°
2026-05-06 13:02 -23.47142 -46.60817 4462 ft 169 kts 74°
2026-05-06 13:02 -23.46816 -46.59613 4444 ft 168 kts 74°
2026-05-06 13:02 -23.46489 -46.58399 4245 ft 164 kts 74°
2026-05-06 13:03 -23.46165 -46.57197 4047 ft 163 kts 74°
2026-05-06 13:03 -23.45849 -46.56020 3834 ft 162 kts 73°
2026-05-06 13:03 -23.45528 -46.54830 3629 ft 162 kts 73°
2026-05-06 13:03 -23.45202 -46.53622 3445 ft 168 kts 73°
2026-05-06 13:04 -23.44855 -46.52328 3215 ft 175 kts 73°
2026-05-06 13:04 -23.44600 -46.51381 3020 ft 175 kts 73°
2026-05-06 13:04 -23.44264 -46.50131 2776 ft 173 kts 73°
2026-05-06 13:04 -23.43930 -46.48889 2558 ft 168 kts 73°
2026-05-06 13:05 -23.43783 -46.48345 2480 ft 160 kts 73°
2026-05-06 13:05 -23.43549 -46.47481 2483 ft 114 kts 73°
2026-05-06 13:05 -23.43383 -46.46864 2488 ft 68 kts 74°
2026-05-06 13:05 -23.43306 -46.46581 2476 ft 25 kts 70°
2026-05-06 13:06 -23.43231 -46.46400 2475 ft 25 kts 58°
2026-05-06 13:06 -23.43114 -46.46259 2476 ft 25 kts 44°
2026-05-06 13:06 -23.43027 -46.46167 2472 ft 4 kts 41°
2026-05-06 13:06 -23.42997 -46.46150 2473 ft 6 kts 15°
2026-05-06 13:07 -23.42948 -46.46147 2473 ft 8 kts 354°
2026-05-06 13:07 -23.42886 -46.46163 2472 ft 10 kts 343°
2026-05-06 13:07 -23.42814 -46.46186 2476 ft 11 kts 343°
2026-05-06 13:07 -23.42734 -46.46211 2474 ft 13 kts 343°
2026-05-06 13:08 -23.42656 -46.46236 2473 ft 11 kts 343°
2026-05-06 13:08 -23.42615 -46.46263 2471 ft 6 kts 291°
2026-05-06 13:08 -23.42624 -46.46319 2470 ft 9 kts 252°
2026-05-06 13:08 -23.42644 -46.46390 2472 ft 11 kts 253°
2026-05-06 13:09 -23.42668 -46.46480 2469 ft 14 kts 253°
2026-05-06 13:09 -23.42697 -46.46587 2472 ft 15 kts 253°
2026-05-06 13:09 -23.42728 -46.46705 2474 ft 17 kts 253°
2026-05-06 13:09 -23.42764 -46.46837 2470 ft 20 kts 253°
2026-05-06 13:10 -23.42808 -46.46995 2470 ft 23 kts 253°
2026-05-06 13:10 -23.42855 -46.47164 2469 ft 20 kts 253°
2026-05-06 13:10 -23.42896 -46.47322 2466 ft 18 kts 254°
2026-05-06 13:10 -23.42921 -46.47419 2469 ft 11 kts 254°
2026-05-06 13:11 -23.42926 -46.47445 2469 ft 2 kts 274°
2026-05-06 13:11 -23.42916 -46.47462 2471 ft 4 kts 316°
2026-05-06 13:11 -23.42877 -46.47488 2467 ft 9 kts 335°
2026-05-06 13:11 -23.42857 -46.47498 2464 ft 10 kts 337°